Location: Aucun
(42.9667°N, 0.1667°W)
Time: 10:50:39
(UTC+00:00)

Cosmos 2369 Rocket - Pass Details

Date: 17 February 2020
Orbit: 827 x 854 km, 71.0° (Epoch: 08 April)

Event Time Altitude Azimuth Distance (km) Brightness Sun altitude
Exits shadow 04:49:53 - 339° (NNW) 3,336 5.2 -23.7°
Reaches altitude 10° 04:52:11 10° 345° (NNW) 2,491 4.5 -23.3°
Maximum altitude 04:57:44 50° 60° (ENE) 1,074 3.0 -22.3°
Drops below altitude 10° 05:03:16 10° 136° (SE) 2,477 5.2 -21.3°
Sets 05:05:47 0° 141° (SE) 3,407 5.9 -20.8°
